Location: De Har
(53.3413°N, 6.6858°E)
Time: 19:17:17
(UTC+00:00)

NOSS 3-3 (A) - Pass Details

Date: 22 April 2026
Orbit: 691 x 1518 km, 63.4° (Epoch: 11 January)

Event Time Altitude Azimuth Distance (km) Brightness Sun altitude
Exits shadow 03:01:35 13° 249° (WSW) 2,205 5.3 -10.8°
Maximum altitude 03:06:30 59° 328° (NNW) 1,047 4.2 -10.2°
Drops below altitude 10° 03:13:09 10° 48° (NE) 2,906 8.1 -9.4°
Sets 03:16:09 0° 52° (NE) 4,001 9.6 -9.0°
